Beatrice, NE

8:44 PM CST on December 15, 2017 (GMT -0600)
Beatrice Municipal

Weather History for KBIE - September, 2013

Change the Weather History Date:

Saturday, September 28, 2013

  Actual Average Record
Temperature  
Mean Temperature 62 °F -  
Max Temperature 75 °F 74 °F 94 °F (1952)
Min Temperature 49 °F 51 °F 28 °F (1951)
Degree Days  
Heating Degree Days 3    
Growing Degree Days 12 (Base 50)    
Moisture  
Dew Point 50 °F    
Average Humidity 69    
Maximum Humidity 97    
Minimum Humidity 39    
Precipitation  
Precipitation 0.54 in - - ()
Sea Level Pressure  
Sea Level Pressure 29.93 in    
Wind  
Wind Speed 14 mph (WNW)    
Max Wind Speed 22 mph    
Max Gust Speed 31 mph    
Visibility 10 miles    
Events Rain , Thunderstorm    
Averages and records for this station are not official NWS values.
T = Trace of Precipitation, MM = Missing Value Source: NWS Daily Summary

Daily Weather History Graph

Daily Weather History Graph

Search for Another Location

Airport or City:

Trip Planner

Search our weather history database for the weather conditions in past years. The results will help you decide how hot, cold, wet, or windy it might be!

Date:

Astronomy

Sep. 28, 2013 Rise Set
Actual Time 7:20 AM CDT 7:13 PM CDT
Civil Twilight 6:53 AM CDT 7:40 PM CDT
Nautical Twilight 6:21 AM CDT 8:12 PM CDT
Astronomical Twilight 5:49 AM CDT 8:44 PM CDT
Moon 1:08 AM CDT (9/28) 3:33 PM CDT (9/28)
Length of Visible Light 12h 47m
Length of Day
11h 52m
Waning Crescent, 36% of the Moon is Illuminated
Sep 28
Waning Crescent
Oct 4
New
Oct 11
First Quarter
Oct 18
Full
Oct 26
Last Quarter

Hourly Weather History & Observations

Time (CDT) Temp. Dew Point Humidity Pressure Visibility Wind Dir Wind Speed Gust Speed Precip Events Conditions
12:15 AM 75.2 °F 58.1 °F 55% 29.73 in 10.0 mi SSE 18.4 mph 27.6 mph N/A   Clear
12:35 AM 75.2 °F 58.1 °F 55% 29.72 in 10.0 mi SSE 20.7 mph 27.6 mph N/A   Clear
12:55 AM 74.8 °F 58.1 °F 56% 29.71 in 10.0 mi SSE 21.9 mph 31.1 mph N/A   Clear
1:15 AM 74.5 °F 58.1 °F 57% 29.71 in 10.0 mi SSE 17.3 mph 29.9 mph N/A   Scattered Clouds
1:35 AM 74.3 °F 58.3 °F 57% 29.71 in 10.0 mi SSE 17.3 mph 25.3 mph N/A   Mostly Cloudy
1:55 AM 73.8 °F 58.3 °F 58% 29.71 in 10.0 mi South 20.7 mph 26.5 mph N/A   Mostly Cloudy
2:15 AM 73.6 °F 58.5 °F 59% 29.71 in 10.0 mi South 17.3 mph 26.5 mph N/A   Mostly Cloudy
2:35 AM 72.5 °F 59.9 °F 64% 29.72 in 10.0 mi South 18.4 mph 23.0 mph N/A Rain Light Rain
2:55 AM 70.7 °F 60.8 °F 71% 29.71 in 10.0 mi South 13.8 mph 19.6 mph N/A   Mostly Cloudy
3:15 AM 68.5 °F 62.2 °F 80% 29.69 in 7.0 mi South 13.8 mph - 0.03 in Rain Rain
3:35 AM 68.0 °F 62.6 °F 83% 29.69 in 10.0 mi South 12.7 mph 16.1 mph 0.04 in Rain , Thunderstorm Light Thunderstorms and Rain
3:55 AM 66.0 °F 64.2 °F 94% 29.71 in 2.5 mi South 12.7 mph - 0.34 in Rain , Thunderstorm Heavy Thunderstorms and Rain
4:15 AM 66.6 °F 64.8 °F 94% 29.74 in 4.0 mi SW 20.7 mph - 0.06 in Rain , Thunderstorm Rain
4:35 AM 65.7 °F 64.0 °F 94% 29.75 in 5.0 mi WSW 12.7 mph 20.7 mph 0.12 in Rain , Thunderstorm Rain
4:55 AM 63.7 °F 62.4 °F 96% 29.74 in 7.0 mi West 9.2 mph - 0.14 in Rain Light Rain
5:15 AM 63.1 °F 62.2 °F 97% 29.76 in 7.0 mi WSW 6.9 mph - 0.01 in Rain Light Rain
5:35 AM 62.6 °F 61.3 °F 96% 29.77 in 5.0 mi West 9.2 mph - 0.05 in Rain Rain
5:55 AM 59.2 °F 57.4 °F 94% 29.80 in 10.0 mi West 19.6 mph 26.5 mph 0.05 in Rain Light Rain
6:15 AM 56.1 °F 54.1 °F 93% 29.83 in 10.0 mi WNW 17.3 mph 25.3 mph N/A   Overcast
6:35 AM 55.0 °F 52.9 °F 92% 29.84 in 10.0 mi NW 19.6 mph 25.3 mph 0.01 in   Overcast
6:55 AM 54.5 °F 52.0 °F 91% 29.86 in 10.0 mi NW 16.1 mph 26.5 mph 0.01 in   Overcast
7:15 AM 54.1 °F 51.6 °F 91% 29.86 in 10.0 mi NW 16.1 mph 20.7 mph N/A   Overcast
7:35 AM 54.0 °F 51.4 °F 91% 29.88 in 10.0 mi NW 16.1 mph - N/A   Overcast
7:55 AM 54.0 °F 51.6 °F 92% 29.89 in 10.0 mi NW 13.8 mph 17.3 mph N/A   Overcast
8:15 AM 53.8 °F 50.9 °F 90% 29.90 in 10.0 mi NW 15.0 mph 19.6 mph N/A   Overcast
8:35 AM 53.8 °F 50.7 °F 89% 29.91 in 10.0 mi NW 15.0 mph 20.7 mph N/A   Overcast
8:55 AM 54.0 °F 50.7 °F 89% 29.91 in 10.0 mi NW 15.0 mph 19.6 mph N/A   Mostly Cloudy
9:15 AM 54.7 °F 50.2 °F 85% 29.93 in 10.0 mi NW 16.1 mph 25.3 mph N/A   Mostly Cloudy
9:35 AM 54.7 °F 49.5 °F 83% 29.94 in 10.0 mi NW 18.4 mph 28.8 mph N/A   Overcast
9:55 AM 54.9 °F 49.3 °F 81% 29.95 in 10.0 mi NW 13.8 mph 18.4 mph N/A   Overcast
10:15 AM 55.0 °F 48.2 °F 78% 29.96 in 10.0 mi NNW 13.8 mph 18.4 mph N/A   Scattered Clouds
10:35 AM 55.9 °F 48.9 °F 77% 29.97 in 10.0 mi NW 15.0 mph 19.6 mph N/A   Clear
10:55 AM 58.6 °F 48.9 °F 70% 29.98 in 10.0 mi NW 17.3 mph 20.7 mph N/A   Clear
11:15 AM 58.1 °F 48.0 °F 69% 29.98 in 10.0 mi NW 12.7 mph - N/A   Clear
11:35 AM 59.4 °F 48.2 °F 67% 29.99 in 10.0 mi WNW 13.8 mph - N/A   Clear
11:55 AM 60.3 °F 47.7 °F 63% 29.99 in 10.0 mi WNW 12.7 mph 17.3 mph N/A   Clear
12:15 PM 59.9 °F 47.1 °F 63% 30.00 in 10.0 mi WNW 12.7 mph - N/A   Clear
12:35 PM 61.5 °F 47.5 °F 60% 30.00 in 10.0 mi WNW 11.5 mph - N/A   Scattered Clouds
12:55 PM 62.2 °F 46.9 °F 57% 30.00 in 10.0 mi WNW 11.5 mph 19.6 mph N/A   Clear
1:15 PM 63.0 °F 46.0 °F 54% 30.01 in 10.0 mi WNW 11.5 mph 17.3 mph N/A   Clear
1:35 PM 63.5 °F 46.4 °F 54% 30.00 in 10.0 mi WNW 10.4 mph - N/A   Scattered Clouds
1:55 PM 64.0 °F 46.6 °F 53% 30.00 in 10.0 mi NW 10.4 mph 17.3 mph N/A   Clear
2:15 PM 65.3 °F 45.7 °F 49% 29.99 in 10.0 mi WNW 15.0 mph - N/A   Clear
2:35 PM 66.4 °F 45.3 °F 47% 29.99 in 10.0 mi NW 15.0 mph - N/A   Clear
2:55 PM 66.7 °F 44.2 °F 44% 29.99 in 10.0 mi NW 12.7 mph 19.6 mph N/A   Clear
3:15 PM 67.5 °F 45.1 °F 45% 30.00 in 10.0 mi NW 15.0 mph - N/A   Clear
3:35 PM 67.8 °F 45.0 °F 44% 30.00 in 10.0 mi NNW 11.5 mph - N/A   Clear
3:55 PM 68.2 °F 44.1 °F 42% 30.00 in 10.0 mi WNW 15.0 mph 19.6 mph N/A   Clear
4:15 PM 68.0 °F 43.0 °F 40% 30.00 in 10.0 mi WNW 11.5 mph 17.3 mph N/A   Clear
4:35 PM 68.0 °F 42.4 °F 39% 30.00 in 10.0 mi NNW 15.0 mph 21.9 mph N/A   Clear
4:55 PM 67.8 °F 42.6 °F 40% 30.01 in 10.0 mi NW 13.8 mph 20.7 mph N/A   Clear
5:15 PM 68.0 °F 43.9 °F 42% 30.01 in 10.0 mi WNW 9.2 mph - N/A   Clear
5:35 PM 67.5 °F 43.3 °F 42% 30.01 in 10.0 mi NW 10.4 mph - N/A   Clear
5:55 PM 66.9 °F 43.2 °F 42% 30.02 in 10.0 mi NW 9.2 mph - N/A   Clear
6:15 PM 66.4 °F 42.8 °F 42% 30.03 in 10.0 mi NW 9.2 mph - N/A   Clear
6:35 PM 64.6 °F 44.1 °F 47% 30.03 in 10.0 mi NW 5.8 mph - N/A   Clear
6:55 PM 62.6 °F 44.1 °F 51% 30.03 in 10.0 mi NNW 3.5 mph - N/A   Clear
7:15 PM 61.2 °F 44.8 °F 55% 30.04 in 10.0 mi Calm Calm - N/A   Clear
7:35 PM 59.0 °F 44.2 °F 58% 30.04 in 10.0 mi Calm Calm - N/A   Clear
7:55 PM 56.7 °F 45.9 °F 67% 30.05 in 10.0 mi Calm Calm - N/A   Clear
8:15 PM 56.3 °F 45.0 °F 66% 30.05 in 10.0 mi Calm Calm - N/A   Clear
8:35 PM 55.6 °F 45.5 °F 69% 30.05 in 10.0 mi Calm Calm - N/A   Clear
8:55 PM 54.5 °F 45.9 °F 73% 30.06 in 10.0 mi Calm Calm - N/A   Clear
9:15 PM 52.5 °F 45.7 °F 78% 30.06 in 10.0 mi Calm Calm - N/A   Clear
9:35 PM 52.9 °F 47.3 °F 81% 30.07 in 10.0 mi Calm Calm - N/A   Clear
9:55 PM 52.2 °F 46.6 °F 81% 30.08 in 10.0 mi Calm Calm - N/A   Clear
10:15 PM 52.0 °F 47.5 °F 85% 30.08 in 10.0 mi Calm Calm - N/A   Clear
10:35 PM 51.1 °F 47.1 °F 86% 30.08 in 10.0 mi Calm Calm - N/A   Clear
10:55 PM 50.2 °F 46.4 °F 87% 30.08 in 10.0 mi Calm Calm - N/A   Clear
11:15 PM 49.3 °F 46.0 °F 89% 30.09 in 10.0 mi Calm Calm - N/A   Clear
11:35 PM 49.1 °F 46.6 °F 91% 30.09 in 10.0 mi Calm Calm - N/A   Clear
11:55 PM 49.1 °F 45.9 °F 89% 30.09 in 10.0 mi Calm Calm - N/A   Clear